This is the latest recevied weather packets stored in our database for station/object KM4NDN. If no packets are shown the sender has not sent any weather packets the latest 10 day(s).
| Time | Temp. | Humidity | Pressure | Rain* | Wind** | Luminosity | Snow |
|---|---|---|---|---|---|---|---|
| 1778088670 | 13.33° C | 48% | 1010.9 hPa | 0 mm | - | 474 W/m² | - |
| 1778088368 | 12.78° C | 47% | 1010.7 hPa | 0 mm | - | 422 W/m² | - |
| 1778088064 | 12.78° C | 50% | 1010.8 hPa | 0 mm | - | 492 W/m² | - |
| 1778087761 | 12.78° C | 49% | 1010.7 hPa | 0 mm | - | 847 W/m² | - |
| 1778087458 | 12.78° C | 51% | 1010.9 hPa | 0 mm | - | 813 W/m² | - |
| 1778087150 | 12.78° C | 50% | 1011 hPa | 0 mm | - | 901 W/m² | - |
| 1778086847 | 12.78° C | 53% | 1010.9 hPa | 0 mm | - | 862 W/m² | - |
| 1778086546 | 12.78° C | 50% | 1010.9 hPa | 0 mm | - | 817 W/m² | - |
| 1778086241 | 12.78° C | 49% | 1010.9 hPa | 0 mm | - | 835 W/m² | - |
| 1778085939 | 12.22° C | 48% | 1011 hPa | 0 mm | - | 820 W/m² | - |
| 1778085636 | 12.22° C | 53% | 1010.9 hPa | 0 mm | - | 865 W/m² | - |
| 1778085332 | 12.78° C | 47% | 1010.9 hPa | 0 mm | - | 624 W/m² | - |
| 1778085028 | 12.22° C | 45% | 1011 hPa | 0 mm | - | 857 W/m² | - |
| 1778084724 | 12.78° C | 44% | 1011 hPa | 0 mm | - | 465 W/m² | - |
| 1778084421 | 12.22° C | 50% | 1011 hPa | 0 mm | - | 886 W/m² | - |
| 1778084119 | 12.22° C | 45% | 1011 hPa | 0 mm | - | 729 W/m² | - |
| 1778083815 | 12.22° C | 48% | 1010.8 hPa | 0 mm | - | 827 W/m² | - |
| 1778083513 | 12.22° C | 50% | 1010.8 hPa | 0 mm | - | 827 W/m² | - |
| 1778083210 | 12.22° C | 46% | 1010.5 hPa | 0 mm | - | 829 W/m² | - |
| 1778082908 | 12.22° C | 50% | 1010.6 hPa | 0 mm | - | 668 W/m² | - |
| 1778081794 | 11.67° C | 58% | 1010.5 hPa | 0 mm | - | 692 W/m² | - |
| 1778081491 | 12.22° C | 62% | 1010.4 hPa | 0 mm | - | 735 W/m² | - |
| 1778081189 | 11.67° C | 59% | 1010.5 hPa | 0 mm | - | 736 W/m² | - |
| 1778080886 | 11.67° C | 60% | 1010.3 hPa | 0 mm | - | 730 W/m² | - |
| 1778080585 | 11.67° C | 57% | 1010.2 hPa | 0 mm | - | 715 W/m² | - |
* Rain latest hour (hover to see other rain measurements)
** Current wind speed in m/s (hover to see current wind gust speed)